Regional Weather Roundup
Issued by NWS

Home | Current Version | Previous Version | Graphics & Text | Print | Product List | Glossary On
Versions: 1 2 3 4 5 6 7 8 9 10 11 12 13 14 15 16 17 18 19 20 21 22 23 24 25 26 27 28 29 30 31 32 33 34 35 36 37 38 39 40 41 42 43 44 45 46 47 48 49 50
000
ASUS45 KABQ 200410
RWRNM
NEW MEXICO REGIONAL WEATHER ROUNDUP
NATIONAL WEATHER SERVICE ALBUQUERQUE NM
1000 PM MDT THU OCT 19 2017

NOTE: "FAIR" MEANS FEW OR NO CLOUDS BELOW 12,000 FEET AGL WITH NO
       SIGNIFICANT WEATHER OR OBSTRUCTIONS TO VISION.

      THIS PRODUCT IS RELEASED AS TWO VERSIONS.  ONE VERSION NEAR
      THE TOP OF THE HOUR CONTAINING PRELIMINARY DATA FROM ALBUQUERQUE
      AND OTHER STATIONS.  A FINAL VERSION WITH ADDITIONAL DATA IS
      ISSUED ABOUT 10 MINUTES AFTER THE HOUR.

NMZ501-503-504-510>518-200500-
NORTHWEST PLATEAU/NORTHCENTRAL MOUNTAINS

CITY           SKY/WX    TMP DP  RH WIND       PRES   REMARKS
FARMINGTON     FAIR      57  36  45 CALM      30.02R
LOS ALAMOS     FAIR      55  37  49 SW7       30.14S
SANTA FE       FAIR      56  43  61 SW12      30.11R
TAOS           MOCLDY    53  33  46 SW9       30.15R
ANGEL FIRE     FAIR      40  32  71 SE8       30.19R

$$
NMZ402-403-502-505>509-200500-
WESTCENTRAL MOUNTAINS/SOUTHWEST MOUNTAINS

CITY           SKY/WX    TMP DP  RH WIND       PRES   REMARKS
GALLUP         FAIR      53  40  61 S10       30.10S
GRANTS         FAIR      47  44  89 S6        30.16R
SILVER CITY    CLOUDY    58  45  60 NE8       30.08S

$$
NMZ407-409-411-412-200500-
SOUTHERN DESERTS

CITY           SKY/WX    TMP DP  RH WIND       PRES   REMARKS
DEMING         MOCLDY    61  52  72 E14G23    30.05R
LAS CRUCES     CLOUDY    58  55  91 N8        30.07R
HOLLOMAN AFB   LGT RAIN  57  57 100 E15         N/A
ALAMOGORDO     LGT RAIN  57  52  82 NE17G23   30.14F
T OR C         FAIR      57  54  89 CALM      30.09S

$$
NMZ519>523-200500-
CENTRAL VALLEYS/CENTRAL HIGHLANDS

CITY           SKY/WX    TMP DP  RH WIND       PRES   REMARKS
ALBUQUERQUE    CLOUDY    56  52  86 E10       30.09F
DOUBLE EAGLE   CLOUDY    54  48  82 SE13      30.10F
MORIARTY ARPT  CLOUDY    58  44  58 NW7       30.12S
CLINES CORNERS CLOUDY    51  43  74 W13       30.16F
BELEN          MOCLDY    55  51  87 E3        30.09F
SOCORRO        FAIR      57  50  76 S6        30.10F

$$
NMZ524>526-539-540-200500-
SOUTHCENTRAL MOUNTAINS

CITY           SKY/WX    TMP DP  RH WIND       PRES   REMARKS
RUIDOSO        LGT RAIN  50  45  81 SW16      30.23R

$$
NMZ527>531-200500-
NORTHEAST HIGHLANDS/NORTHEAST PLAINS

CITY           SKY/WX    TMP DP  RH WIND       PRES   REMARKS
LAS VEGAS      FAIR      50  42  74 S15       30.10F
RATON          FAIR      50  38  63 W6        30.06S
CLAYTON        FAIR      58  46  64 S15       30.03R

$$
NMZ532>537-200500-
EASTCENTRAL PLAINS

CITY           SKY/WX    TMP DP  RH WIND       PRES   REMARKS
SANTA ROSA     LGT RAIN  59  50  72 S16G24    30.05F
TUCUMCARI      FAIR      61  53  75 S16G25    30.02R
CANNON AFB     CLOUDY    56  56 100 SW5       30.10R
CLOVIS AIRPORT MOCLDY    54  54 100 SW3       30.09R

$$
NMZ028-029-538-200500-
SOUTHEAST PLAINS

CITY           SKY/WX    TMP DP  RH WIND       PRES   REMARKS
ROSWELL        CLOUDY    62  53  72 W10       30.04R
ARTESIA        LGT RAIN  61  59  94 NE16G22   30.03F
CARLSBAD       TSTM      62  61  96 N13       30.07R
HOBBS          FAIR      59  52  77 S8        30.05S


$$




USA.gov is the U.S. government's official web portal to all federal, state and local government web resources and services.